Regional Weather Roundup
Issued by NWS

Home | Current Version | Previous Version | Graphics & Text | Print | Product List | Glossary On
Versions: 1 2 3 4 5 6 7 8 9 10 11 12 13 14 15 16 17 18 19 20 21 22 23 24 25 26 27 28 29 30 31 32 33 34 35 36 37 38 39 40 41 42 43 44 45 46 47 48 49 50
000
ASUS43 KMKX 250900
RWRWI

WISCONSIN REGIONAL WEATHER ROUNDUP
NATIONAL WEATHER SERVICE MILWAUKEE/SULLIVAN WI
400 AM CDT SAT MAR 25 2017

NOTE: "FAIR" INDICATES FEW OR NO CLOUDS BELOW 12,000 FEET WITH NO
SIGNIFICANT WEATHER AND/OR OBSTRUCTIONS TO VISIBILITY.

WIZ001-002-006>008-014>016-023>028-251000-
NORTHWEST WISCONSIN

CITY           SKY/WX    TMP DP  RH WIND       PRES   REMARKS
SUPERIOR ARPT  CLOUDY    34  32  93 NE8       30.27R WCI  27
ASHLAND        CLOUDY    33  30  88 E8        30.26F WCI  26
HAYWARD        CLOUDY    35  29  78 NE8       30.22R WCI  29
SIREN          CLOUDY    35  30  80 E6        30.22S WCI  30
CUMBERLAND     CLOUDY    34  30  86 NE8       30.19F WCI  27
RICE LAKE      CLOUDY    35  31  88 CALM      30.20F
CHETEK         CLOUDY    35  32  87 NE5       30.19F WCI  31
LADYSMITH      CLOUDY    36  32  85 NE7       30.21S WCI  30
EAU CLAIRE     NOT AVBL
MENOMONIE      CLOUDY    37  32  81 NE8       30.17F WCI  31
NEW RICHMOND   CLOUDY    35  31  84 NE10      30.17F WCI  28
OSCEOLA        CLOUDY    36  31  83 NE8       30.21F WCI  30
$$

WIZ003>005-009-010-017-018-251000-
NORTH CENTRAL WISCONSIN

CITY           SKY/WX    TMP DP  RH WIND       PRES   REMARKS
MANITOWISH WTR CLOUDY    31  31 100 NE6       30.21R WCI  26
ARBOR VITAE    CLOUDY    34  32  92 NE5       30.19R WCI  30
WOODRUFF       CLOUDY    34  32  92 NE5       30.19R WCI  30
RHINELANDER    CLOUDY    34  31  88 E9        30.19S WCI  27
EAGLE RIVER    CLOUDY    32  32 100 NE6       30.20R WCI  26
LAND O LAKES   CLOUDY    32  32 100 NE5       30.22S WCI  27
PHILLIPS       CLOUDY    32  30  92 NE6       30.19R WCI  27
TOMAHAWK       CLOUDY    32  29  88 E5        30.19S WCI  28
MEDFORD        CLOUDY    32  30  90 E9G17     30.17R WCI  25
MERRILL        CLOUDY    33  31  92 NE5       30.20R WCI  29
$$

WIZ029-030-035-036-043>047-251000-
CENTRAL WISCONSIN

CITY           SKY/WX    TMP DP  RH WIND       PRES   REMARKS
WAUSAU         CLOUDY    33  30  88 E8        30.18R WCI  26
MOSINEE        CLOUDY    32  32 100 NE15      30.18S WCI  22
MARSHFIELD     CLOUDY    34  31  88 E13       30.15S WCI  25
STEVENS POINT  CLOUDY    32  31  98 NE12      30.17F WCI  23
WAUPACA        CLOUDY    36  33  89 NE10      30.16F WCI  28
WAUTOMA        CLOUDY    35  33  92 NE9       30.16S WCI  28
WISC RAPIDS    CLOUDY    34  33  96 NE9       30.17S WCI  27
CAMP DOUGLAS   CLOUDY    36  32  87 E8        30.13S WCI  29
$$

WIZ011>013-019>022-031-037>040-048>050-251000-
NORTHEAST WISCONSIN

CITY           SKY/WX    TMP DP  RH WIND       PRES   REMARKS
ANTIGO         CLOUDY    32  30  95 NE10      30.18R WCI  23
SHAWANO        CLOUDY    36  32  86 NE8       30.19S WCI  30
OCONTO         CLOUDY    35  32  90 NE7       30.19S WCI  29
STURGEON BAY   CLOUDY    35  33  92 NE12G17   30.19F WCI  27
GREEN BAY      LGT RAIN  35  34  96 NE16      30.17F WCI  25
MANITOWOC      NOT AVBL
APPLETON       CLOUDY    34  34 100 NE14      30.13S WCI  24
CLINTONVILLE   CLOUDY    34  32  93 NE8       30.18S WCI  27
OSHKOSH        CLOUDY    35  32  88 NE15G22   30.12F WCI  25
$$

WIZ032>034-041-042-053>061-251000-
SOUTHWEST WISCONSIN

CITY           SKY/WX    TMP DP  RH WIND       PRES   REMARKS
LA CROSSE      CLOUDY    40  35  83 E10       30.12S WCI  33
SPARTA         CLOUDY    36  35  94 E9        30.13F WCI  29
VIROQUA        CLOUDY    36  35  99 E15       30.08S WCI  26
BOSCOBEL       LGT RAIN  38  36  92 NE10      30.07F WCI  31
PRAIRIE DU CHI DRIZZLE   37  36  96 NE10      30.06F WCI  30
PLATTEVILLE    CLOUDY    37  37 100 NE16      30.03F WCI  28
$$

WIZ056-057-062-063-064-067-068-251000-
SOUTH CENTRAL WISCONSIN

CITY           SKY/WX    TMP DP  RH WIND       PRES   REMARKS
REEDSBURG      CLOUDY    35  35 100 NE9       30.10F WCI  27
BARABOO/DELLS    N/A     34  33  96 NE13      30.10F FOG     WCI  25
LONE ROCK      NOT AVBL
MINERAL POINT  LGT RAIN  36  36 100 NE16G22   30.04F WCI  26
MADISON        LGT RAIN  36  34  92 NE9       30.08F WCI  29
MIDDLETON      CLOUDY    37  36  93 NE12      30.09F WCI  30
WATERTOWN      DRIZZLE   36  36 100 NE7       30.09S WCI  31
MONROE         CLOUDY    36  36 100 NE17      30.03F WCI  25
JANESVILLE     DRIZZLE   37  37 100 NE7       30.05F WCI  32
$$

WIZ051-052-058>065-066-070>072-251000-
SOUTHEAST WISCONSIN

CITY           SKY/WX    TMP DP  RH WIND       PRES   REMARKS
MILWAUKEE      LGT RAIN  37  35  92 NE15      30.07F WCI  28
WAUKESHA       CLOUDY    34  32  93 NE7       30.08F WCI  28
MILWAUKEE/TIMM DRIZZLE   36  32  87 NE15G24   30.08F WCI  26
RACINE         CLOUDY    37  35  92 N14G21    30.08F WCI  28
KENOSHA        CLOUDY    38  36  92 NE10      30.07S WCI  31
FOND DU LAC    CLOUDY    36  32  85 NE10      30.13R WCI  28
SHEBOYGAN      CLOUDY    36  33  89 NE20      30.11F WCI  25
WEST BEND      DRIZZLE   36  36 100 NE9       30.09F WCI  29
JUNEAU         DRIZZLE   35  33  94 N7        30.12R WCI  29
$$

LSZ147-162-251000-
LAKE SUPERIOR

STATION/POSITION TIME  TEMP    WIND        PRES    WAVE
                       AIR SEA DIR/SP/G            HT/PER
                 (UTC) (F)     (DEG/KT/KT) (MB)    (FT/S)
DEVILS ISLAND    0800   34      70/ 14/ 15 1026.6F
PORT WING        0840   35      70/  6/ 10 1025.1F
SAXON HARBOR     0840   33      40/  9/ 10 1025.1R
$$

LMZ867-665-643>646-251000-
LAKE MICHIGAN

STATION/POSITION TIME  TEMP    WIND        PRES    WAVE
                       AIR SEA DIR/SP/G            HT/PER
                 (UTC) (F)     (DEG/KT/KT) (MB)    (FT/S)
CHAMBERS ISLAND  0840   33      20/ 11/ 15 1022.7S
NORTHPORT PIER   0840   35      40/ 10/ 14 1023.0F
SISTER BAY       0705   34      10/  6/  6   N/A
KEWAUNEE LAKESHO 0830   35      40/ 13/ 18 1020.9F
SHEBOYGAN LAKESH 0800   36      20/ 19/ 20 1020.9R
PORT WASHINGTON  0840   37      30/ 14/ 20 1020.3S
MILWAUKEE LAKESH 0830   37      20/ 16/ 18   N/A
KENOSHA   LAKESH 0800   37      20/ 19/ 23 1018.3
$$

TC  - TEMPERATURE IN CELSIUS
VSB - VISIBILITY IN STATUTE MILES
WCI - WIND CHILL INDEX
HX  - HEAT INDEX





USA.gov is the U.S. government's official web portal to all federal, state and local government web resources and services.